Time,TemperatureF,DewpointF,PressureIn,WindDirection,WindDirectionDegrees,WindSpeedMPH,WindSpeedGustMPH,Humidity,HourlyPrecipIn,Conditions,Clouds,dailyrainin,SoftwareType,DateUTC
2013-02-01 00:04:00,69.8,65.1,29.83,North,0,8.7,16.1,85,0.00,,,0.00,WUHU216HW,2013-01-31 21:04:00,
2013-02-01 00:09:00,69.8,65.1,29.83,NNW,338,5.4,12.8,85,0.00,,,0.00,WUHU216HW,2013-01-31 21:09:00,
2013-02-01 00:14:00,69.8,65.1,29.83,NNE,23,12.1,15.0,85,0.00,,,0.00,WUHU216HW,2013-01-31 21:14:00,
2013-02-01 00:19:00,69.8,65.1,29.83,North,0,10.5,16.3,85,0.00,,,0.00,WUHU216HW,2013-01-31 21:19:00,
2013-02-01 00:24:00,70.0,65.3,29.83,ENE,68,9.2,16.3,85,0.00,,,0.00,WUHU216HW,2013-01-31 21:24:00,
2013-02-01 00:29:00,70.0,65.3,29.83,NNE,23,9.2,14.3,85,0.00,,,0.00,WUHU216HW,2013-01-31 21:29:00,
2013-02-01 00:34:00,70.0,65.3,29.83,NNE,23,11.2,14.3,85,0.00,,,0.00,WUHU216HW,2013-01-31 21:34:00,
2013-02-01 00:39:00,70.0,65.3,29.83,North,0,4.7,15.9,85,0.00,,,0.00,WUHU216HW,2013-01-31 21:39:00,
2013-02-01 00:44:00,70.0,65.3,29.82,ENE,68,12.5,17.7,85,0.00,,,0.00,WUHU216HW,2013-01-31 21:44:00,
2013-02-01 00:49:00,70.2,65.4,29.82,North,0,13.0,17.7,85,0.00,,,0.00,WUHU216HW,2013-01-31 21:49:00,
2013-02-01 00:54:00,70.2,65.4,29.82,NNE,23,3.4,14.1,85,0.00,,,0.00,WUHU216HW,2013-01-31 21:54:00,
2013-02-01 00:59:00,70.2,65.4,29.82,NE,45,8.9,13.9,85,0.00,,,0.00,WUHU216HW,2013-01-31 21:59:00,
2013-02-01 01:04:00,70.2,65.4,29.81,ENE,68,10.3,16.8,85,0.00,,,0.00,WUHU216HW,2013-01-31 22:04:00,
2013-02-01 01:09:00,70.2,65.4,29.81,NE,45,9.6,17.2,85,0.00,,,0.00,WUHU216HW,2013-01-31 22:09:00,
2013-02-01 01:14:00,70.2,65.4,29.81,NE,45,7.8,17.2,85,0.00,,,0.00,WUHU216HW,2013-01-31 22:14:00,
2013-02-01 01:19:00,70.2,65.4,29.81,NE,45,8.5,12.8,85,0.00,,,0.00,WUHU216HW,2013-01-31 22:19:00,
2013-02-01 01:24:00,70.0,65.3,29.81,NE,45,6.5,11.9,85,0.00,,,0.00,WUHU216HW,2013-01-31 22:24:00,
2013-02-01 01:29:00,70.0,65.6,29.82,North,0,7.2,12.1,86,0.00,,,0.00,WUHU216HW,2013-01-31 22:29:00,
2013-02-01 01:34:00,70.0,65.6,29.82,North,0,6.0,14.1,86,0.00,,,0.00,WUHU216HW,2013-01-31 22:34:00,
2013-02-01 01:39:00,70.0,66.0,29.82,North,0,11.9,16.3,87,0.00,,,0.00,WUHU216HW,2013-01-31 22:39:00,
2013-02-01 01:44:00,70.0,66.0,29.82,North,0,9.8,17.4,87,0.00,,,0.00,WUHU216HW,2013-01-31 22:44:00,
2013-02-01 01:49:00,69.8,65.8,29.82,NNW,338,4.7,17.4,87,0.00,,,0.00,WUHU216HW,2013-01-31 22:49:00,
2013-02-01 01:54:00,69.8,65.8,29.82,North,0,9.4,9.8,87,0.00,,,0.00,WUHU216HW,2013-01-31 22:54:00,
2013-02-01 01:59:00,69.8,65.8,29.82,NNE,23,9.2,13.4,87,0.00,,,0.00,WUHU216HW,2013-01-31 22:59:00,
2013-02-01 02:04:00,69.8,65.8,29.82,NNE,23,11.4,13.4,87,0.00,,,0.00,WUHU216HW,2013-01-31 23:04:00,
2013-02-01 02:09:00,69.7,65.9,29.82,NNE,23,2.9,11.4,88,0.00,,,0.00,WUHU216HW,2013-01-31 23:09:00,
2013-02-01 02:14:00,69.7,65.9,29.82,NNW,338,7.2,11.4,88,0.00,,,0.00,WUHU216HW,2013-01-31 23:14:00,
2013-02-01 02:19:00,69.7,65.9,29.82,North,0,5.8,11.9,88,0.00,,,0.00,WUHU216HW,2013-01-31 23:19:00,
2013-02-01 02:24:00,69.7,65.9,29.81,North,0,8.7,12.8,88,0.00,,,0.00,WUHU216HW,2013-01-31 23:24:00,
2013-02-01 02:29:00,69.5,65.7,29.81,NE,45,6.3,15.4,88,0.00,,,0.00,WUHU216HW,2013-01-31 23:29:00,
2013-02-01 02:34:00,69.5,65.7,29.81,North,0,7.8,15.4,88,0.00,,,0.00,WUHU216HW,2013-01-31 23:34:00,
2013-02-01 02:39:00,69.5,65.7,29.81,North,0,5.6,11.9,88,0.00,,,0.00,WUHU216HW,2013-01-31 23:39:00,
2013-02-01 02:44:00,69.5,65.7,29.82,NNE,23,7.6,11.9,88,0.00,,,0.00,WUHU216HW,2013-01-31 23:44:00,
2013-02-01 02:49:00,69.5,65.7,29.83,NNW,338,7.6,14.3,88,0.00,,,0.00,WUHU216HW,2013-01-31 23:49:00,
2013-02-01 02:54:00,69.5,65.7,29.82,North,0,4.7,14.3,88,0.00,,,0.00,WUHU216HW,2013-01-31 23:54:00,
2013-02-01 02:59:00,69.5,65.7,29.82,NE,45,2.5,11.6,88,0.00,,,0.00,WUHU216HW,2013-01-31 23:59:00,
2013-02-01 03:04:00,69.5,65.7,29.82,NNE,23,8.1,10.7,88,0.00,,,0.00,WUHU216HW,2013-02-01 00:04:00,
2013-02-01 03:09:00,69.5,65.7,29.82,North,0,3.8,10.7,88,0.00,,,0.00,WUHU216HW,2013-02-01 00:09:00,
2013-02-01 03:14:00,69.5,65.7,29.81,North,0,7.4,10.3,88,0.00,,,0.00,WUHU216HW,2013-02-01 00:14:00,
2013-02-01 03:19:00,69.5,65.7,29.81,NNE,23,12.8,16.3,88,0.00,,,0.00,WUHU216HW,2013-02-01 00:19:00,
2013-02-01 03:24:00,69.7,65.9,29.81,NNE,23,4.0,16.3,88,0.00,,,0.00,WUHU216HW,2013-02-01 00:24:00,
2013-02-01 03:29:00,69.7,65.9,29.82,North,0,6.3,14.8,88,0.00,,,0.00,WUHU216HW,2013-02-01 00:29:00,
2013-02-01 03:34:00,69.5,65.7,29.82,North,0,6.9,11.9,88,0.00,,,0.00,WUHU216HW,2013-02-01 00:34:00,
2013-02-01 03:39:00,69.5,65.7,29.82,North,0,8.9,17.0,88,0.00,,,0.00,WUHU216HW,2013-02-01 00:39:00,
2013-02-01 03:44:00,69.5,65.7,29.83,NNE,23,6.3,17.0,88,0.00,,,0.00,WUHU216HW,2013-02-01 00:44:00,
2013-02-01 03:49:00,69.3,65.6,29.83,North,0,10.3,14.5,88,0.00,,,0.00,WUHU216HW,2013-02-01 00:49:00,
2013-02-01 03:54:00,69.3,65.6,29.83,North,0,15.0,15.0,88,0.00,,,0.00,WUHU216HW,2013-02-01 00:54:00,
2013-02-01 03:59:00,69.1,65.4,29.83,NNE,23,13.6,17.4,88,0.00,,,0.00,WUHU216HW,2013-02-01 00:59:00,
2013-02-01 04:04:00,69.1,65.4,29.83,NNW,338,8.5,17.4,88,0.00,,,0.00,WUHU216HW,2013-02-01 01:04:00,
2013-02-01 04:09:00,68.9,65.3,29.84,North,0,10.5,17.0,88,0.00,,,0.00,WUHU216HW,2013-02-01 01:09:00,
2013-02-01 04:14:00,68.8,65.1,29.84,NE,45,7.6,17.2,88,0.00,,,0.00,WUHU216HW,2013-02-01 01:14:00,
2013-02-01 04:19:00,68.6,65.2,29.84,ESE,113,6.0,17.2,89,0.00,,,0.00,WUHU216HW,2013-02-01 01:19:00,
2013-02-01 04:24:00,68.4,65.0,29.84,NNE,23,13.2,15.7,89,0.00,,,0.00,WUHU216HW,2013-02-01 01:24:00,
2013-02-01 04:29:00,68.4,65.0,29.84,NNE,23,10.7,15.7,89,0.00,,,0.00,WUHU216HW,2013-02-01 01:29:00,
2013-02-01 04:34:00,68.2,64.8,29.84,North,0,9.6,15.7,89,0.00,,,0.00,WUHU216HW,2013-02-01 01:34:00,
2013-02-01 04:39:00,68.2,64.8,29.84,NNE,23,12.1,20.4,89,0.00,,,0.00,WUHU216HW,2013-02-01 01:39:00,
2013-02-01 04:44:00,68.2,64.8,29.84,NNE,23,9.2,20.4,89,0.00,,,0.00,WUHU216HW,2013-02-01 01:44:00,
2013-02-01 04:49:00,68.2,64.8,29.84,NNE,23,9.8,14.5,89,0.00,,,0.00,WUHU216HW,2013-02-01 01:49:00,
2013-02-01 04:54:00,68.2,64.5,29.84,ESE,113,9.4,14.3,88,0.00,,,0.00,WUHU216HW,2013-02-01 01:54:00,
2013-02-01 04:59:00,68.2,64.5,29.85,NE,45,9.2,15.7,88,0.00,,,0.00,WUHU216HW,2013-02-01 01:59:00,
2013-02-01 05:04:00,68.2,64.5,29.85,NE,45,7.2,15.7,88,0.00,,,0.00,WUHU216HW,2013-02-01 02:04:00,
2013-02-01 05:09:00,68.0,64.4,29.84,ENE,68,9.8,16.6,88,0.00,,,0.00,WUHU216HW,2013-02-01 02:09:00,
2013-02-01 05:14:00,68.0,64.0,29.85,North,0,11.6,16.6,87,0.00,,,0.00,WUHU216HW,2013-02-01 02:14:00,
2013-02-01 05:19:00,68.0,63.7,29.85,NE,45,6.7,16.8,86,0.00,,,0.00,WUHU216HW,2013-02-01 02:19:00,
2013-02-01 05:24:00,68.0,63.7,29.85,NNE,23,9.4,16.8,86,0.00,,,0.00,WUHU216HW,2013-02-01 02:24:00,
2013-02-01 05:29:00,68.2,63.9,29.86,NNE,23,12.1,14.5,86,0.00,,,0.00,WUHU216HW,2013-02-01 02:29:00,
2013-02-01 05:34:00,68.2,63.6,29.86,ENE,68,12.1,15.0,85,0.00,,,0.00,WUHU216HW,2013-02-01 02:34:00,
2013-02-01 05:39:00,68.2,63.2,29.86,North,0,7.4,15.0,84,0.00,,,0.00,WUHU216HW,2013-02-01 02:39:00,
2013-02-01 05:44:00,68.2,63.2,29.87,NNE,23,11.4,14.5,84,0.00,,,0.00,WUHU216HW,2013-02-01 02:44:00,
2013-02-01 05:49:00,68.2,63.2,29.87,NE,45,6.9,15.7,84,0.00,,,0.00,WUHU216HW,2013-02-01 02:49:00,
2013-02-01 05:54:00,68.0,63.0,29.87,NE,45,12.8,15.7,84,0.00,,,0.00,WUHU216HW,2013-02-01 02:54:00,
2013-02-01 05:59:00,68.2,63.2,29.87,NE,45,6.9,15.0,84,0.00,,,0.00,WUHU216HW,2013-02-01 02:59:00,
2013-02-01 06:04:00,68.4,63.4,29.88,ESE,113,6.0,15.0,84,0.00,,,0.00,WUHU216HW,2013-02-01 03:04:00,
2013-02-01 06:09:00,68.4,63.1,29.89,NNE,23,8.5,17.2,83,0.00,,,0.00,WUHU216HW,2013-02-01 03:09:00,
2013-02-01 06:14:00,68.4,63.1,29.89,East,90,7.6,17.2,83,0.00,,,0.00,WUHU216HW,2013-02-01 03:14:00,
2013-02-01 06:19:00,68.4,62.7,29.88,NE,45,10.5,17.9,82,0.00,,,0.00,WUHU216HW,2013-02-01 03:19:00,
2013-02-01 06:24:00,68.4,62.7,29.88,North,0,6.7,17.9,82,0.00,,,0.00,WUHU216HW,2013-02-01 03:24:00,
2013-02-01 06:29:00,68.4,62.7,29.88,ENE,68,6.5,17.2,82,0.00,,,0.00,WUHU216HW,2013-02-01 03:29:00,
2013-02-01 06:34:00,68.4,63.1,29.89,NNE,23,11.2,13.0,83,0.00,,,0.00,WUHU216HW,2013-02-01 03:34:00,
2013-02-01 06:39:00,68.4,62.7,29.89,ESE,113,8.3,13.0,82,0.00,,,0.00,WUHU216HW,2013-02-01 03:39:00,
2013-02-01 06:44:00,68.4,62.7,29.89,North,0,8.3,13.0,82,0.00,,,0.00,WUHU216HW,2013-02-01 03:44:00,
2013-02-01 06:49:00,68.4,62.7,29.90,North,0,11.6,15.9,82,0.00,,,0.00,WUHU216HW,2013-02-01 03:49:00,
2013-02-01 06:54:00,68.4,62.4,29.89,ESE,113,13.4,17.7,81,0.00,,,0.00,WUHU216HW,2013-02-01 03:54:00,
2013-02-01 06:59:00,68.4,62.7,29.89,North,0,10.5,17.7,82,0.00,,,0.00,WUHU216HW,2013-02-01 03:59:00,
2013-02-01 07:04:00,68.6,62.9,29.89,NE,45,10.5,13.2,82,0.00,,,0.00,WUHU216HW,2013-02-01 04:04:00,
2013-02-01 07:09:00,68.8,63.4,29.90,NE,45,5.6,13.2,83,0.00,,,0.00,WUHU216HW,2013-02-01 04:09:00,
2013-02-01 07:14:00,68.8,63.4,29.90,NW,315,5.4,12.8,83,0.00,,,0.00,WUHU216HW,2013-02-01 04:14:00,
2013-02-01 07:19:00,68.8,63.4,29.90,North,0,4.9,12.8,83,0.00,,,0.00,WUHU216HW,2013-02-01 04:19:00,
2013-02-01 07:24:00,68.8,63.4,29.91,NW,315,11.4,12.1,83,0.00,,,0.00,WUHU216HW,2013-02-01 04:24:00,
2013-02-01 07:29:00,68.8,63.4,29.91,East,90,7.6,12.1,83,0.00,,,0.00,WUHU216HW,2013-02-01 04:29:00,
2013-02-01 07:35:00,69.1,63.7,29.91,North,0,10.5,15.0,83,0.00,,,0.00,WUHU216HW,2013-02-01 04:35:00,
2013-02-01 07:40:00,69.1,63.7,29.91,NNE,23,8.5,15.0,83,0.00,,,0.00,WUHU216HW,2013-02-01 04:40:00,
2013-02-01 07:45:00,69.3,63.9,29.90,North,0,9.4,13.6,83,0.00,,,0.00,WUHU216HW,2013-02-01 04:45:00,
2013-02-01 07:50:00,69.5,64.1,29.90,NE,45,13.4,13.6,83,0.00,,,0.00,WUHU216HW,2013-02-01 04:50:00,
2013-02-01 07:55:00,69.5,64.1,29.90,ESE,113,5.4,13.4,83,0.00,,,0.00,WUHU216HW,2013-02-01 04:55:00,
2013-02-01 08:00:00,69.5,64.1,29.90,East,90,9.8,13.4,83,0.00,,,0.00,WUHU216HW,2013-02-01 05:00:00,
2013-02-01 08:01:00,69.3,63.9,29.90,ENE,68,4.3,11.4,83,0.00,,,0.00,WUHU216HW,2013-02-01 05:01:00,
2013-02-01 08:06:00,69.5,64.1,29.90,NE,45,4.7,9.8,83,0.00,,,0.00,WUHU216HW,2013-02-01 05:06:00,
2013-02-01 08:11:00,69.5,64.1,29.91,East,90,5.4,11.4,83,0.00,,,0.00,WUHU216HW,2013-02-01 05:11:00,
2013-02-01 08:16:00,69.5,64.1,29.91,ENE,68,3.8,11.4,83,0.00,,,0.00,WUHU216HW,2013-02-01 05:16:00,
2013-02-01 08:21:00,69.5,64.1,29.91,East,90,4.5,11.0,83,0.00,,,0.00,WUHU216HW,2013-02-01 05:21:00,
2013-02-01 08:26:00,69.5,64.4,29.91,ESE,113,6.5,11.0,84,0.00,,,0.00,WUHU216HW,2013-02-01 05:26:00,
2013-02-01 08:31:00,69.7,64.5,29.91,ESE,113,6.7,10.1,84,0.00,,,0.00,WUHU216HW,2013-02-01 05:31:00,
2013-02-01 08:36:00,69.7,64.3,29.91,ENE,68,5.6,10.5,83,0.00,,,0.00,WUHU216HW,2013-02-01 05:36:00,
2013-02-01 08:41:00,69.7,64.5,29.92,ENE,68,3.8,10.5,84,0.00,,,0.00,WUHU216HW,2013-02-01 05:41:00,
2013-02-01 08:46:00,69.8,64.4,29.92,ENE,68,4.5,9.8,83,0.00,,,0.00,WUHU216HW,2013-02-01 05:46:00,
2013-02-01 08:51:00,69.8,64.4,29.91,East,90,6.0,10.1,83,0.00,,,0.00,WUHU216HW,2013-02-01 05:51:00,
2013-02-01 08:56:00,69.8,64.1,29.91,NE,45,9.4,10.3,82,0.00,,,0.00,WUHU216HW,2013-02-01 05:56:00,
2013-02-01 09:01:00,69.8,64.1,29.92,East,90,5.4,11.9,82,0.00,,,0.00,WUHU216HW,2013-02-01 06:01:00,
2013-02-01 09:06:00,70.2,64.5,29.92,East,90,3.4,11.9,82,0.00,,,0.00,WUHU216HW,2013-02-01 06:06:00,
2013-02-01 09:11:00,70.2,64.5,29.92,ENE,68,7.2,10.3,82,0.00,,,0.00,WUHU216HW,2013-02-01 06:11:00,
2013-02-01 09:16:00,70.2,64.1,29.92,North,0,6.0,11.4,81,0.00,,,0.00,WUHU216HW,2013-02-01 06:16:00,
2013-02-01 09:21:00,70.2,64.1,29.92,ENE,68,4.0,11.4,81,0.00,,,0.00,WUHU216HW,2013-02-01 06:21:00,
2013-02-01 09:26:00,70.4,64.3,29.92,NE,45,5.8,9.2,81,0.00,,,0.00,WUHU216HW,2013-02-01 06:26:00,
2013-02-01 09:31:00,70.6,64.5,29.92,NE,45,3.8,8.7,81,0.00,,,0.00,WUHU216HW,2013-02-01 06:31:00,
2013-02-01 09:36:00,70.9,64.8,29.92,NNE,23,9.2,9.2,81,0.00,,,0.00,WUHU216HW,2013-02-01 06:36:00,
2013-02-01 09:41:00,70.9,64.4,29.92,North,0,7.4,9.6,80,0.00,,,0.00,WUHU216HW,2013-02-01 06:41:00,
2013-02-01 09:46:00,70.9,64.4,29.92,North,0,9.6,11.0,80,0.00,,,0.00,WUHU216HW,2013-02-01 06:46:00,
2013-02-01 09:51:00,71.3,64.8,29.92,North,0,3.4,11.0,80,0.00,,,0.00,WUHU216HW,2013-02-01 06:51:00,
2013-02-01 09:56:00,71.8,65.3,29.92,NNE,23,6.3,10.5,80,0.00,,,0.00,WUHU216HW,2013-02-01 06:56:00,
2013-02-01 10:01:00,71.6,64.8,29.93,ENE,68,9.2,11.0,79,0.00,,,0.00,WUHU216HW,2013-02-01 07:01:00,
2013-02-01 10:06:00,71.5,63.8,29.92,North,0,4.5,11.9,77,0.00,,,0.00,WUHU216HW,2013-02-01 07:06:00,
2013-02-01 10:11:00,71.6,63.6,29.92,SE,135,3.1,11.9,76,0.00,,,0.00,WUHU216HW,2013-02-01 07:11:00,
2013-02-01 10:16:00,72.0,64.4,29.91,NNE,23,9.2,9.8,77,0.00,,,0.00,WUHU216HW,2013-02-01 07:16:00,
2013-02-01 10:21:00,72.0,64.4,29.92,NE,45,4.7,9.2,77,0.00,,,0.00,WUHU216HW,2013-02-01 07:21:00,
2013-02-01 10:26:00,72.2,64.5,29.91,ENE,68,8.7,9.2,77,0.00,,,0.00,WUHU216HW,2013-02-01 07:26:00,
2013-02-01 10:31:00,72.4,64.7,29.91,North,0,5.6,9.6,77,0.00,,,0.00,WUHU216HW,2013-02-01 07:31:00,
2013-02-01 10:36:00,72.4,64.7,29.91,ESE,113,4.9,9.6,77,0.00,,,0.00,WUHU216HW,2013-02-01 07:36:00,
2013-02-01 10:41:00,72.7,65.1,29.92,NE,45,4.7,8.5,77,0.00,,,0.00,WUHU216HW,2013-02-01 07:41:00,
2013-02-01 10:46:00,73.1,65.1,29.91,NNE,23,2.0,6.3,76,0.00,,,0.00,WUHU216HW,2013-02-01 07:46:00,
2013-02-01 10:51:00,72.9,64.5,29.91,East,90,3.1,7.6,75,0.00,,,0.00,WUHU216HW,2013-02-01 07:51:00,
2013-02-01 10:56:00,72.9,64.9,29.91,NNW,338,4.9,7.6,76,0.00,,,0.00,WUHU216HW,2013-02-01 07:56:00,
2013-02-01 11:01:00,73.1,65.1,29.91,NNE,23,5.4,6.7,76,0.00,,,0.00,WUHU216HW,2013-02-01 08:01:00,
2013-02-01 11:06:00,73.1,65.1,29.90,ENE,68,3.1,6.7,76,0.00,,,0.00,WUHU216HW,2013-02-01 08:06:00,
2013-02-01 11:11:00,73.1,65.1,29.91,ENE,68,5.4,7.4,76,0.00,,,0.00,WUHU216HW,2013-02-01 08:11:00,
2013-02-01 11:16:00,73.1,65.1,29.91,ESE,113,3.6,7.4,76,0.00,,,0.00,WUHU216HW,2013-02-01 08:16:00,
2013-02-01 11:21:00,73.1,65.1,29.90,NE,45,7.8,7.8,76,0.00,,,0.00,WUHU216HW,2013-02-01 08:21:00,
2013-02-01 11:26:00,73.1,65.1,29.90,East,90,6.0,7.8,76,0.00,,,0.00,WUHU216HW,2013-02-01 08:26:00,
2013-02-01 11:31:00,72.9,64.9,29.90,East,90,6.0,9.4,76,0.00,,,0.00,WUHU216HW,2013-02-01 08:31:00,
2013-02-01 11:36:00,72.7,64.7,29.89,NE,45,5.4,9.4,76,0.00,,,0.00,WUHU216HW,2013-02-01 08:36:00,
2013-02-01 11:41:00,73.1,65.4,29.90,NNE,23,2.5,7.8,77,0.00,,,0.00,WUHU216HW,2013-02-01 08:41:00,
2013-02-01 11:46:00,73.4,65.4,29.90,North,0,5.4,8.5,76,0.00,,,0.00,WUHU216HW,2013-02-01 08:46:00,
2013-02-01 11:51:00,73.4,63.9,29.90,NNE,23,2.7,9.2,72,0.00,,,0.00,WUHU216HW,2013-02-01 08:51:00,
2013-02-01 11:56:00,73.6,63.7,29.90,NNE,23,3.1,9.2,71,0.00,,,0.00,WUHU216HW,2013-02-01 08:56:00,
2013-02-01 12:01:00,74.0,64.1,29.89,NNE,23,3.6,12.3,71,0.00,,,0.00,WUHU216HW,2013-02-01 09:01:00,
2013-02-01 12:06:00,74.2,64.2,29.89,North,0,5.4,12.3,71,0.00,,,0.00,WUHU216HW,2013-02-01 09:06:00,
2013-02-01 12:11:00,74.2,63.4,29.89,North,0,3.4,8.7,69,0.00,,,0.00,WUHU216HW,2013-02-01 09:11:00,
2013-02-01 12:16:00,74.0,63.2,29.89,North,0,4.7,10.5,69,0.00,,,0.00,WUHU216HW,2013-02-01 09:16:00,
2013-02-01 12:21:00,73.8,63.6,29.89,ESE,113,3.1,10.5,70,0.00,,,0.00,WUHU216HW,2013-02-01 09:21:00,
2013-02-01 12:26:00,74.0,63.6,29.89,NW,315,3.1,9.4,70,0.00,,,0.00,WUHU216HW,2013-02-01 09:26:00,
2013-02-01 12:31:00,73.8,63.6,29.89,NNE,23,4.0,11.4,70,0.00,,,0.00,WUHU216HW,2013-02-01 09:31:00,
2013-02-01 12:36:00,73.6,63.4,29.89,NNE,23,7.6,11.4,70,0.00,,,0.00,WUHU216HW,2013-02-01 09:36:00,
2013-02-01 12:41:00,73.8,63.9,29.88,NNE,23,9.8,11.0,71,0.00,,,0.00,WUHU216HW,2013-02-01 09:41:00,
2013-02-01 12:46:00,74.0,63.6,29.88,North,0,5.1,13.0,70,0.00,,,0.00,WUHU216HW,2013-02-01 09:46:00,
2013-02-01 12:51:00,73.8,63.6,29.87,North,0,10.5,13.0,70,0.00,,,0.00,WUHU216HW,2013-02-01 09:51:00,
2013-02-01 12:56:00,74.0,63.6,29.88,NNW,338,8.9,12.8,70,0.00,,,0.00,WUHU216HW,2013-02-01 09:56:00,
2013-02-01 13:01:00,74.2,63.4,29.87,NNE,23,9.8,11.6,69,0.00,,,0.00,WUHU216HW,2013-02-01 10:01:00,
2013-02-01 13:06:00,74.0,63.2,29.87,NNE,23,6.3,11.6,69,0.00,,,0.00,WUHU216HW,2013-02-01 10:06:00,
2013-02-01 13:11:00,73.8,63.1,29.87,NNE,23,6.3,10.5,69,0.00,,,0.00,WUHU216HW,2013-02-01 10:11:00,
2013-02-01 13:16:00,74.0,63.2,29.87,NNW,338,2.2,10.5,69,0.00,,,0.00,WUHU216HW,2013-02-01 10:16:00,
2013-02-01 13:21:00,74.0,63.2,29.87,North,0,11.4,11.6,69,0.00,,,0.00,WUHU216HW,2013-02-01 10:21:00,
2013-02-01 13:26:00,73.8,63.1,29.87,NE,45,6.9,11.6,69,0.00,,,0.00,WUHU216HW,2013-02-01 10:26:00,
2013-02-01 13:31:00,73.8,63.1,29.87,WSW,248,3.1,8.3,69,0.00,,,0.00,WUHU216HW,2013-02-01 10:31:00,
2013-02-01 13:36:00,73.8,63.1,29.87,North,0,7.2,10.1,69,0.00,,,0.00,WUHU216HW,2013-02-01 10:36:00,
2013-02-01 13:41:00,73.4,62.7,29.87,NNE,23,4.5,10.1,69,0.00,,,0.00,WUHU216HW,2013-02-01 10:41:00,
2013-02-01 13:46:00,73.4,63.2,29.87,NNE,23,9.2,11.4,70,0.00,,,0.00,WUHU216HW,2013-02-01 10:46:00,
2013-02-01 13:51:00,73.4,63.2,29.87,NNE,23,9.2,11.4,70,0.00,,,0.00,WUHU216HW,2013-02-01 10:51:00,
2013-02-01 13:56:00,73.4,63.2,29.87,NNE,23,8.1,11.9,70,0.00,,,0.00,WUHU216HW,2013-02-01 10:56:00,
2013-02-01 14:01:00,73.3,63.0,29.87,North,0,7.4,13.0,70,0.00,,,0.00,WUHU216HW,2013-02-01 11:01:00,
2013-02-01 14:06:00,73.3,63.4,29.87,NNE,23,11.0,13.0,71,0.00,,,0.00,WUHU216HW,2013-02-01 11:06:00,
2013-02-01 14:11:00,73.4,63.2,29.87,NNE,23,8.1,12.8,70,0.00,,,0.00,WUHU216HW,2013-02-01 11:11:00,
2013-02-01 14:16:00,73.6,63.4,29.87,ENE,68,4.5,12.8,70,0.00,,,0.00,WUHU216HW,2013-02-01 11:16:00,
2013-02-01 14:21:00,73.6,62.9,29.87,NE,45,5.4,12.1,69,0.00,,,0.00,WUHU216HW,2013-02-01 11:21:00,
2013-02-01 14:26:00,73.8,62.7,29.87,North,0,7.2,12.1,68,0.00,,,0.00,WUHU216HW,2013-02-01 11:26:00,
2013-02-01 14:31:00,73.8,62.7,29.87,NNE,23,3.4,12.1,68,0.00,,,0.00,WUHU216HW,2013-02-01 11:31:00,
2013-02-01 14:36:00,74.0,63.6,29.87,ENE,68,5.4,12.1,70,0.00,,,0.00,WUHU216HW,2013-02-01 11:36:00,
2013-02-01 14:41:00,74.0,64.1,29.87,North,0,11.4,11.4,71,0.00,,,0.00,WUHU216HW,2013-02-01 11:41:00,
2013-02-01 14:46:00,73.8,63.9,29.88,NNE,23,5.4,11.4,71,0.00,,,0.00,WUHU216HW,2013-02-01 11:46:00,
2013-02-01 14:51:00,74.0,64.1,29.87,NE,45,2.5,11.4,71,0.00,,,0.00,WUHU216HW,2013-02-01 11:51:00,
2013-02-01 14:56:00,74.2,64.6,29.88,East,90,4.0,8.5,72,0.00,,,0.00,WUHU216HW,2013-02-01 11:56:00,
2013-02-01 15:01:00,74.2,64.2,29.88,ENE,68,6.7,9.2,71,0.00,,,0.00,WUHU216HW,2013-02-01 12:01:00,
2013-02-01 15:06:00,74.2,64.2,29.88,NNE,23,6.9,12.1,71,0.00,,,0.00,WUHU216HW,2013-02-01 12:06:00,
2013-02-01 15:11:00,74.0,64.1,29.88,ENE,68,4.9,12.1,71,0.00,,,0.00,WUHU216HW,2013-02-01 12:11:00,
2013-02-01 15:16:00,73.8,63.9,29.88,ENE,68,4.3,11.6,71,0.00,,,0.00,WUHU216HW,2013-02-01 12:16:00,
2013-02-01 15:21:00,73.6,63.7,29.88,ENE,68,6.9,10.3,71,0.00,,,0.00,WUHU216HW,2013-02-01 12:21:00,
2013-02-01 15:27:00,73.4,63.5,29.89,ENE,68,3.1,9.8,71,0.00,,,0.00,WUHU216HW,2013-02-01 12:27:00,
2013-02-01 15:31:00,73.6,63.4,29.89,North,0,12.8,12.8,70,0.00,,,0.00,WUHU216HW,2013-02-01 12:31:00,
2013-02-01 15:36:00,73.4,63.2,29.89,North,0,10.1,12.8,70,0.00,,,0.00,WUHU216HW,2013-02-01 12:36:00,
2013-02-01 15:41:00,73.1,63.2,29.89,NW,315,9.8,13.2,71,0.00,,,0.00,WUHU216HW,2013-02-01 12:41:00,
2013-02-01 15:46:00,72.5,63.0,29.90,North,0,4.3,13.2,72,0.00,,,0.00,WUHU216HW,2013-02-01 12:46:00,
2013-02-01 15:51:00,72.4,62.8,29.90,North,0,4.3,12.8,72,0.00,,,0.00,WUHU216HW,2013-02-01 12:51:00,
2013-02-01 15:56:00,72.5,62.6,29.89,NW,315,6.9,12.1,71,0.00,,,0.00,WUHU216HW,2013-02-01 12:56:00,
2013-02-01 16:01:00,72.5,62.6,29.89,NE,45,6.3,11.4,71,0.00,,,0.00,WUHU216HW,2013-02-01 13:01:00,
2013-02-01 16:06:00,72.5,62.3,29.90,North,0,8.5,11.2,70,0.00,,,0.00,WUHU216HW,2013-02-01 13:06:00,
2013-02-01 16:11:00,72.5,61.8,29.90,North,0,3.1,12.1,69,0.00,,,0.00,WUHU216HW,2013-02-01 13:11:00,
2013-02-01 16:16:00,72.5,61.8,29.90,ENE,68,1.8,12.1,69,0.00,,,0.00,WUHU216HW,2013-02-01 13:16:00,
2013-02-01 16:22:00,72.4,62.1,29.90,NNW,338,6.9,9.6,70,0.00,,,0.00,WUHU216HW,2013-02-01 13:22:00,
2013-02-01 16:27:00,72.0,61.7,29.90,North,0,8.5,10.5,70,0.00,,,0.00,WUHU216HW,2013-02-01 13:27:00,
2013-02-01 16:31:00,72.0,61.7,29.91,North,0,9.4,10.5,70,0.00,,,0.00,WUHU216HW,2013-02-01 13:31:00,
2013-02-01 16:37:00,71.6,62.1,29.91,NW,315,2.0,11.2,72,0.00,,,0.00,WUHU216HW,2013-02-01 13:37:00,
2013-02-01 16:42:00,71.5,62.7,29.91,North,0,4.5,14.8,74,0.00,,,0.00,WUHU216HW,2013-02-01 13:42:00,
2013-02-01 16:47:00,71.1,62.7,29.91,North,0,4.9,14.8,75,0.00,,,0.00,WUHU216HW,2013-02-01 13:47:00,
2013-02-01 16:52:00,70.9,62.9,29.91,North,0,5.4,10.1,76,0.00,,,0.00,WUHU216HW,2013-02-01 13:52:00,
2013-02-01 16:57:00,70.9,63.3,29.91,North,0,9.8,12.5,77,0.00,,,0.00,WUHU216HW,2013-02-01 13:57:00,
2013-02-01 17:02:00,70.7,63.1,29.91,North,0,3.1,12.5,77,0.00,,,0.00,WUHU216HW,2013-02-01 14:02:00,
2013-02-01 17:07:00,70.6,62.9,29.91,North,0,6.3,12.5,77,0.00,,,0.00,WUHU216HW,2013-02-01 14:07:00,
2013-02-01 17:12:00,70.4,62.7,29.91,North,0,8.1,12.5,77,0.00,,,0.00,WUHU216HW,2013-02-01 14:12:00,
2013-02-01 17:17:00,70.2,62.6,29.91,North,0,3.8,12.1,77,0.00,,,0.00,WUHU216HW,2013-02-01 14:17:00,
2013-02-01 17:22:00,70.2,62.6,29.91,North,0,5.1,12.1,77,0.00,,,0.00,WUHU216HW,2013-02-01 14:22:00,
2013-02-01 17:27:00,70.0,62.4,29.91,North,0,5.1,10.5,77,0.00,,,0.00,WUHU216HW,2013-02-01 14:27:00,
2013-02-01 17:32:00,70.0,62.4,29.92,NNE,23,1.8,7.8,77,0.00,,,0.00,WUHU216HW,2013-02-01 14:32:00,
2013-02-01 17:37:00,70.0,62.4,29.91,North,0,1.3,7.8,77,0.00,,,0.00,WUHU216HW,2013-02-01 14:37:00,
2013-02-01 17:42:00,70.0,62.8,29.92,NNE,23,3.4,6.9,78,0.00,,,0.00,WUHU216HW,2013-02-01 14:42:00,
2013-02-01 17:47:00,69.8,62.7,29.91,North,0,7.2,7.2,78,0.00,,,0.00,WUHU216HW,2013-02-01 14:47:00,
2013-02-01 17:52:00,69.7,62.8,29.92,North,0,3.4,8.5,79,0.00,,,0.00,WUHU216HW,2013-02-01 14:52:00,
2013-02-01 17:57:00,69.7,62.8,29.92,North,0,4.3,8.5,79,0.00,,,0.00,WUHU216HW,2013-02-01 14:57:00,
2013-02-01 18:02:00,69.7,62.5,29.92,North,0,3.4,7.4,78,0.00,,,0.00,WUHU216HW,2013-02-01 15:02:00,
2013-02-01 18:07:00,69.8,62.7,29.93,North,0,7.2,9.8,78,0.00,,,0.00,WUHU216HW,2013-02-01 15:07:00,
2013-02-01 18:12:00,69.8,62.7,29.93,NNE,23,8.1,9.8,78,0.00,,,0.00,WUHU216HW,2013-02-01 15:12:00,
2013-02-01 18:17:00,69.8,62.2,29.93,North,0,6.3,8.5,77,0.00,,,0.00,WUHU216HW,2013-02-01 15:17:00,
2013-02-01 18:22:00,69.8,62.2,29.93,NNW,338,2.0,9.2,77,0.00,,,0.00,WUHU216HW,2013-02-01 15:22:00,
2013-02-01 18:27:00,69.7,62.1,29.93,North,0,3.4,9.2,77,0.00,,,0.00,WUHU216HW,2013-02-01 15:27:00,
2013-02-01 18:32:00,69.7,62.1,29.93,North,0,2.5,7.2,77,0.00,,,0.00,WUHU216HW,2013-02-01 15:32:00,
2013-02-01 18:37:00,69.7,62.1,29.94,NNE,23,2.7,6.0,77,0.00,,,0.00,WUHU216HW,2013-02-01 15:37:00,
2013-02-01 18:42:00,69.7,62.1,29.94,NNW,338,6.0,6.9,77,0.00,,,0.00,WUHU216HW,2013-02-01 15:42:00,
2013-02-01 18:47:00,69.7,62.1,29.94,North,0,2.5,8.5,77,0.00,,,0.00,WUHU216HW,2013-02-01 15:47:00,
2013-02-01 18:52:00,69.7,62.1,29.94,NNW,338,5.4,8.5,77,0.00,,,0.00,WUHU216HW,2013-02-01 15:52:00,
2013-02-01 18:57:00,69.5,61.9,29.94,NNW,338,3.8,6.3,77,0.00,,,0.00,WUHU216HW,2013-02-01 15:57:00,
2013-02-01 19:02:00,69.5,61.9,29.94,North,0,2.9,7.2,77,0.00,,,0.00,WUHU216HW,2013-02-01 16:02:00,
2013-02-01 19:07:00,69.5,61.9,29.94,North,0,4.3,7.2,77,0.00,,,0.00,WUHU216HW,2013-02-01 16:07:00,
2013-02-01 19:12:00,69.5,61.6,29.94,NNW,338,4.0,6.9,76,0.00,,,0.00,WUHU216HW,2013-02-01 16:12:00,
2013-02-01 19:17:00,69.5,61.6,29.95,NNW,338,5.4,6.9,76,0.00,,,0.00,WUHU216HW,2013-02-01 16:17:00,
2013-02-01 19:22:00,69.5,61.6,29.95,NW,315,2.2,6.9,76,0.00,,,0.00,WUHU216HW,2013-02-01 16:22:00,
2013-02-01 19:27:00,69.5,61.9,29.95,NNW,338,3.1,6.9,77,0.00,,,0.00,WUHU216HW,2013-02-01 16:27:00,
2013-02-01 19:32:00,69.3,61.7,29.95,North,0,3.4,7.6,77,0.00,,,0.00,WUHU216HW,2013-02-01 16:32:00,
2013-02-01 19:37:00,69.3,61.7,29.95,NW,315,5.1,7.6,77,0.00,,,0.00,WUHU216HW,2013-02-01 16:37:00,
2013-02-01 19:42:00,69.3,61.7,29.95,North,0,5.6,7.2,77,0.00,,,0.00,WUHU216HW,2013-02-01 16:42:00,
2013-02-01 19:47:00,69.3,61.7,29.95,NNW,338,8.1,8.1,77,0.00,,,0.00,WUHU216HW,2013-02-01 16:47:00,
2013-02-01 19:52:00,69.1,61.6,29.95,NW,315,5.4,8.1,77,0.00,,,0.00,WUHU216HW,2013-02-01 16:52:00,
2013-02-01 19:57:00,69.1,61.9,29.95,North,0,4.7,8.1,78,0.00,,,0.00,WUHU216HW,2013-02-01 16:57:00,
2013-02-01 20:02:00,68.9,61.8,29.95,NNE,23,6.9,8.7,78,0.00,,,0.00,WUHU216HW,2013-02-01 17:02:00,
2013-02-01 20:07:00,68.9,61.8,29.95,NW,315,4.0,8.7,78,0.00,,,0.00,WUHU216HW,2013-02-01 17:07:00,
2013-02-01 20:12:00,68.8,62.0,29.95,NNE,23,4.7,9.8,79,0.00,,,0.00,WUHU216HW,2013-02-01 17:12:00,
2013-02-01 20:17:00,68.8,62.0,29.95,NNE,23,5.8,9.8,79,0.00,,,0.00,WUHU216HW,2013-02-01 17:17:00,
2013-02-01 20:22:00,68.8,62.0,29.95,NNW,338,6.0,8.9,79,0.00,,,0.00,WUHU216HW,2013-02-01 17:22:00,
2013-02-01 20:27:00,68.6,61.8,29.96,North,0,5.6,6.7,79,0.00,,,0.00,WUHU216HW,2013-02-01 17:27:00,
2013-02-01 20:32:00,68.6,61.5,29.95,NNW,338,3.6,7.6,78,0.00,,,0.00,WUHU216HW,2013-02-01 17:32:00,
2013-02-01 20:37:00,68.4,61.3,29.95,NNE,23,5.4,7.6,78,0.00,,,0.00,WUHU216HW,2013-02-01 17:37:00,
2013-02-01 20:42:00,68.4,61.7,29.95,NNW,338,6.5,8.5,79,0.00,,,0.00,WUHU216HW,2013-02-01 17:42:00,
2013-02-01 20:47:00,68.4,61.7,29.96,North,0,4.3,8.5,79,0.00,,,0.00,WUHU216HW,2013-02-01 17:47:00,
2013-02-01 20:52:00,68.2,61.6,29.96,North,0,2.7,6.5,79,0.00,,,0.00,WUHU216HW,2013-02-01 17:52:00,
2013-02-01 20:57:00,68.2,61.6,29.96,NW,315,4.3,7.6,79,0.00,,,0.00,WUHU216HW,2013-02-01 17:57:00,
2013-02-01 21:02:00,68.0,61.4,29.96,NNW,338,4.5,7.6,79,0.00,,,0.00,WUHU216HW,2013-02-01 18:02:00,
2013-02-01 21:07:00,68.0,61.4,29.96,North,0,5.1,7.6,79,0.00,,,0.00,WUHU216HW,2013-02-01 18:07:00,
2013-02-01 21:12:00,68.0,61.4,29.96,NNE,23,5.8,7.6,79,0.00,,,0.00,WUHU216HW,2013-02-01 18:12:00,
2013-02-01 21:17:00,68.0,61.4,29.96,North,0,3.1,6.3,79,0.00,,,0.00,WUHU216HW,2013-02-01 18:17:00,
2013-02-01 21:22:00,67.9,61.2,29.95,NNW,338,3.6,6.3,79,0.00,,,0.00,WUHU216HW,2013-02-01 18:22:00,
2013-02-01 21:27:00,67.7,61.0,29.95,NW,315,4.7,7.6,79,0.00,,,0.00,WUHU216HW,2013-02-01 18:27:00,
2013-02-01 21:32:00,67.7,61.4,29.96,NW,315,5.4,7.6,80,0.00,,,0.00,WUHU216HW,2013-02-01 18:32:00,
2013-02-01 21:37:00,67.7,61.4,29.96,NNW,338,8.3,8.3,80,0.00,,,0.00,WUHU216HW,2013-02-01 18:37:00,
2013-02-01 21:42:00,67.7,61.4,29.96,NNW,338,4.0,8.3,80,0.00,,,0.00,WUHU216HW,2013-02-01 18:42:00,
2013-02-01 21:47:00,67.3,61.0,29.96,East,90,5.4,8.3,80,0.00,,,0.00,WUHU216HW,2013-02-01 18:47:00,
2013-02-01 21:52:00,67.3,61.0,29.95,North,0,4.7,7.4,80,0.00,,,0.00,WUHU216HW,2013-02-01 18:52:00,
2013-02-01 21:57:00,67.3,61.0,29.95,NNW,338,3.8,8.3,80,0.00,,,0.00,WUHU216HW,2013-02-01 18:57:00,
2013-02-01 22:02:00,67.3,61.0,29.95,NNW,338,4.3,8.3,80,0.00,,,0.00,WUHU216HW,2013-02-01 19:02:00,
2013-02-01 22:07:00,67.3,61.0,29.95,NNW,338,7.4,7.6,80,0.00,,,0.00,WUHU216HW,2013-02-01 19:07:00,
2013-02-01 22:12:00,67.1,60.8,29.96,NW,315,3.6,7.6,80,0.00,,,0.00,WUHU216HW,2013-02-01 19:12:00,
2013-02-01 22:17:00,67.1,60.8,29.95,NNW,338,6.9,7.6,80,0.00,,,0.00,WUHU216HW,2013-02-01 19:17:00,
2013-02-01 22:22:00,67.1,60.5,29.96,North,0,4.7,10.3,79,0.00,,,0.00,WUHU216HW,2013-02-01 19:22:00,
2013-02-01 22:27:00,67.1,60.8,29.95,NNE,23,4.0,10.3,80,0.00,,,0.00,WUHU216HW,2013-02-01 19:27:00,
2013-02-01 22:32:00,67.0,60.7,29.96,NNW,338,6.9,7.6,80,0.00,,,0.00,WUHU216HW,2013-02-01 19:32:00,
2013-02-01 22:37:00,67.0,60.7,29.95,NW,315,8.3,9.2,80,0.00,,,0.00,WUHU216HW,2013-02-01 19:37:00,
2013-02-01 22:42:00,67.0,60.7,29.95,North,0,5.4,9.2,80,0.00,,,0.00,WUHU216HW,2013-02-01 19:42:00,
2013-02-01 22:47:00,67.0,60.7,29.95,NNW,338,3.6,8.7,80,0.00,,,0.00,WUHU216HW,2013-02-01 19:47:00,
2013-02-01 22:52:00,67.0,60.7,29.95,NNW,338,3.1,8.7,80,0.00,,,0.00,WUHU216HW,2013-02-01 19:52:00,
2013-02-01 22:57:00,66.8,60.5,29.95,NNW,338,4.7,6.9,80,0.00,,,0.00,WUHU216HW,2013-02-01 19:57:00,
2013-02-01 23:02:00,66.8,60.5,29.95,WNW,293,5.8,6.9,80,0.00,,,0.00,WUHU216HW,2013-02-01 20:02:00,
2013-02-01 23:07:00,66.8,60.1,29.95,NNW,338,4.0,5.8,79,0.00,,,0.00,WUHU216HW,2013-02-01 20:07:00,
2013-02-01 23:12:00,66.8,60.1,29.95,NW,315,4.3,7.4,79,0.00,,,0.00,WUHU216HW,2013-02-01 20:12:00,
2013-02-01 23:17:00,66.8,60.1,29.95,NNW,338,5.4,9.2,79,0.00,,,0.00,WUHU216HW,2013-02-01 20:17:00,
2013-02-01 23:22:00,66.6,60.0,29.94,NNW,338,4.0,9.6,79,0.00,,,0.00,WUHU216HW,2013-02-01 20:22:00,
2013-02-01 23:27:00,66.6,60.3,29.94,WNW,293,7.8,9.6,80,0.00,,,0.00,WUHU216HW,2013-02-01 20:27:00,
2013-02-01 23:32:00,66.6,60.3,29.94,NW,315,6.9,10.5,80,0.00,,,0.00,WUHU216HW,2013-02-01 20:32:00,
2013-02-01 23:37:00,66.6,60.0,29.94,NW,315,7.6,10.5,79,0.00,,,0.00,WUHU216HW,2013-02-01 20:37:00,
2013-02-01 23:42:00,66.6,60.0,29.94,NNW,338,4.9,8.5,79,0.00,,,0.00,WUHU216HW,2013-02-01 20:42:00,
2013-02-01 23:47:00,66.6,60.0,29.94,North,0,3.6,7.6,79,0.00,,,0.00,WUHU216HW,2013-02-01 20:47:00,
2013-02-01 23:52:00,66.6,60.0,29.94,NNW,338,6.0,7.6,79,0.00,,,0.00,WUHU216HW,2013-02-01 20:52:00,
2013-02-01 23:57:00,66.6,60.0,29.94,NW,315,7.2,8.7,79,0.00,,,0.00,WUHU216HW,2013-02-01 20:57:00,